Location: Asheville, NC
(35.6000°N, 82.5500°W)
Time: 07:30:50
(UTC-04:00)

Vanguard 1 - Pass Details

Date: 11 December 2017
Orbit: 650 x 3833 km, 34.2° (Epoch: 18 July)

Event Time Altitude Azimuth Distance (km) Brightness Sun altitude
Rises 09:37:37 0° 234° (SW) 7,965 14.7 19.4°
Reaches altitude 10° 09:43:20 10° 232° (SW) 6,859 14.4 20.2°
Maximum altitude 10:04:45 63° 158° (SSE) 3,103 13.5 22.8°
Drops below altitude 10° 10:17:32 10° 81° (E) 4,359 13.7 24.2°
Sets 10:20:16 0° 78° (ENE) 5,028 13.9 24.5°
